Location: Franzen
(48.6167°N, 15.3833°E)
Time: 09:44:10
(UTC+00:00)

Cosmos 2263 Rocket - Pass Details

Date: 22 April 2021
Orbit: 824 x 848 km, 71.0° (Epoch: 16 May)

Event Time Altitude Azimuth Distance (km) Brightness Sun altitude
Exits shadow 20:34:37 32° 96° (E) 1,373 2.9 -21.3°
Drops below altitude 10° 20:39:05 10° 44° (NE) 2,436 4.7 -21.7°
Sets 20:41:44 0° 35° (NE) 3,376 5.6 -22.0°
